When you browse on this site, cookies collect data to enhance your experience and personalize the content and advertising you see.
Visit our Privacy Policy to learn more. By continuing to use the site, you agree to this use of cookies and data.
  • In Slovakia
  • List of Countries
  • For 7 days
  • Water Temperature
  • Satellite Maps
  • Weather Map
  • Weather Widgets
  • user-avatar
    Login

    Hourly Weather Bobki

    Today, 26 June, Wednesday

    Time Temperature Precipitation Wind Pressure Humidity
    00:00 +18°C° 0 mm 1 mps 755 mmHg 86%
    01:00 +18°C° 0 mm 1 mps 755 mmHg 87%
    02:00 +18°C° 0 mm 1 mps 755 mmHg 87%
    03:00 +18°C° 0 mm 1 mps 755 mmHg 88%
    04:00 +17°C° 0 mm 2 mps 755 mmHg 89%
    05:00 +17°C° 0 mm 2 mps 754 mmHg 90%
    06:00 +19°C° 0 mm 2 mps 754 mmHg 86%
    07:00 +21°C° 0 mm 2 mps 754 mmHg 81%
    08:00 +23°C° 0 mm 2 mps 754 mmHg 76%
    09:00 +25°C° 0 mm 2 mps 754 mmHg 72%
    10:00 +26°C° 0 mm 3 mps 754 mmHg 68%
    11:00 +27°C° 0 mm 3 mps 753 mmHg 63%
    12:00 +28°C° 0 mm 3 mps 753 mmHg 62%
    13:00 +28°C° 0 mm 4 mps 752 mmHg 61%
    14:00 +29°C° 0 mm 4 mps 752 mmHg 60%
    15:00 +29°C° 0 mm 4 mps 751 mmHg 63%
    16:00 +28°C° 0 mm 4 mps 750 mmHg 67%
    17:00 +28°C° 0 mm 4 mps 749 mmHg 70%
    18:00 +27°C° 0.1 mm 4 mps 749 mmHg 75%
    19:00 +26°C° 0.1 mm 4 mps 748 mmHg 80%
    20:00 +25°C° 0.1 mm 3 mps 748 mmHg 86%
    21:00 +24°C° 0.6 mm 3 mps 747 mmHg 88%
    22:00 +22°C° 0.6 mm 3 mps 747 mmHg 90%
    23:00 +22°C° 0.6 mm 3 mps 746 mmHg 92%

    Tomorrow, 27 June, Thursday

    Time Temperature Precipitation Wind Pressure Humidity
    00:00 +22°C° 0.4 mm 4 mps 746 mmHg 93%
    01:00 +22°C° 0.4 mm 4 mps 745 mmHg 94%
    02:00 +22°C° 0.4 mm 4 mps 744 mmHg 95%
    03:00 +21°C° 0.4 mm 4 mps 743 mmHg 95%
    04:00 +21°C° 0.4 mm 4 mps 743 mmHg 96%
    05:00 +21°C° 0.4 mm 4 mps 742 mmHg 96%
    06:00 +22°C° 0 mm 5 mps 742 mmHg 93%
    07:00 +23°C° 0 mm 5 mps 741 mmHg 90%
    08:00 +24°C° 0 mm 6 mps 741 mmHg 87%
    09:00 +23°C° 0.2 mm 6 mps 741 mmHg 87%
    10:00 +22°C° 0.2 mm 6 mps 740 mmHg 86%
    11:00 +21°C° 0.2 mm 7 mps 740 mmHg 86%
    12:00 +21°C° 0.5 mm 7 mps 740 mmHg 85%
    13:00 +21°C° 0.5 mm 7 mps 740 mmHg 83%
    14:00 +21°C° 0.5 mm 8 mps 740 mmHg 82%
    15:00 +21°C° 0.4 mm 8 mps 740 mmHg 81%
    16:00 +20°C° 0.4 mm 8 mps 741 mmHg 80%
    17:00 +18°C° 0.4 mm 8 mps 741 mmHg 79%
    18:00 +17°C° 0 mm 7 mps 741 mmHg 80%
    19:00 +16°C° 0 mm 6 mps 741 mmHg 81%
    20:00 +17°C° 0 mm 4 mps 741 mmHg 81%
    21:00 +15°C° 0 mm 5 mps 741 mmHg 79%
    22:00 +15°C° 0 mm 5 mps 742 mmHg 76%
    23:00 +14°C° 0 mm 6 mps 742 mmHg 73%

    Day after tomorrow, 28 June, Friday

    Time Temperature Precipitation Wind Pressure Humidity
    00:00 +13°C° 0 mm 6 mps 742 mmHg 73%
    01:00 +13°C° 0 mm 6 mps 742 mmHg 74%
    02:00 +11°C° 0 mm 6 mps 742 mmHg 74%
    03:00 +10°C° 0 mm 7 mps 742 mmHg 76%
    04:00 +10°C° 0 mm 7 mps 742 mmHg 78%
    05:00 +9°C° 0 mm 7 mps 742 mmHg 79%
    06:00 +10°C° 0 mm 7 mps 742 mmHg 78%
    07:00 +11°C° 0 mm 8 mps 742 mmHg 76%
    08:00 +12°C° 0 mm 8 mps 742 mmHg 75%
    09:00 +13°C° 0.1 mm 8 mps 742 mmHg 72%
    10:00 +16°C° 0.1 mm 8 mps 742 mmHg 69%
    11:00 +17°C° 0.1 mm 9 mps 742 mmHg 66%
    12:00 +17°C° 0.1 mm 9 mps 742 mmHg 65%
    13:00 +17°C° 0.1 mm 9 mps 742 mmHg 63%
    14:00 +17°C° 0.1 mm 9 mps 743 mmHg 62%
    15:00 +17°C° 0.1 mm 8 mps 743 mmHg 63%
    16:00 +17°C° 0.1 mm 8 mps 743 mmHg 63%
    17:00 +17°C° 0.1 mm 7 mps 743 mmHg 64%
    18:00 +16°C° 0 mm 7 mps 743 mmHg 66%
    19:00 +15°C° 0 mm 6 mps 743 mmHg 67%
    20:00 +14°C° 0 mm 6 mps 743 mmHg 69%
    21:00 +13°C° 0 mm 6 mps 744 mmHg 66%
    22:00 +11°C° 0 mm 6 mps 744 mmHg 63%
    23:00 +11°C° 0 mm 6 mps 745 mmHg 60%

    29 June, Saturday

    Time Temperature Precipitation Wind Pressure Humidity
    00:00 +10°C° 0 mm 6 mps 745 mmHg 63%
    01:00 +10°C° 0 mm 5 mps 745 mmHg 67%
    02:00 +9°C° 0 mm 5 mps 745 mmHg 70%
    03:00 +8°C° 0 mm 5 mps 745 mmHg 73%
    04:00 +8°C° 0 mm 5 mps 745 mmHg 77%
    05:00 +8°C° 0 mm 5 mps 746 mmHg 81%
    06:00 +9°C° 0 mm 5 mps 746 mmHg 78%
    07:00 +10°C° 0 mm 5 mps 746 mmHg 75%
    08:00 +11°C° 0 mm 6 mps 746 mmHg 73%
    09:00 +13°C° 0 mm 6 mps 746 mmHg 68%
    10:00 +15°C° 0 mm 6 mps 746 mmHg 64%
    11:00 +16°C° 0 mm 7 mps 746 mmHg 59%
    12:00 +17°C° 0 mm 7 mps 746 mmHg 58%
    13:00 +17°C° 0 mm 7 mps 746 mmHg 57%
    14:00 +18°C° 0 mm 7 mps 746 mmHg 56%
    15:00 +19°C° 0 mm 6 mps 746 mmHg 58%
    16:00 +19°C° 0 mm 6 mps 746 mmHg 61%
    17:00 +19°C° 0 mm 5 mps 746 mmHg 64%
    18:00 +17°C° 0.1 mm 5 mps 746 mmHg 71%
    19:00 +17°C° 0.1 mm 4 mps 746 mmHg 78%
    20:00 +15°C° 0.1 mm 4 mps 746 mmHg 85%
    21:00 +15°C° 0 mm 4 mps 746 mmHg 86%
    22:00 +14°C° 0 mm 4 mps 746 mmHg 87%
    23:00 +14°C° 0 mm 4 mps 747 mmHg 88%

    30 June, Sunday

    Time Temperature Precipitation Wind Pressure Humidity
    00:00 +13°C° 0 mm 3 mps 747 mmHg 89%
    01:00 +13°C° 0 mm 3 mps 747 mmHg 91%
    02:00 +12°C° 0 mm 3 mps 747 mmHg 92%
    03:00 +12°C° 0 mm 3 mps 747 mmHg 91%
    04:00 +13°C° 0 mm 3 mps 747 mmHg 90%
    05:00 +13°C° 0 mm 3 mps 747 mmHg 88%
    06:00 +14°C° 0 mm 3 mps 747 mmHg 84%
    07:00 +17°C° 0 mm 2 mps 747 mmHg 79%
    08:00 +18°C° 0 mm 2 mps 747 mmHg 75%
    09:00 +20°C° 0 mm 2 mps 747 mmHg 70%
    10:00 +21°C° 0 mm 3 mps 747 mmHg 65%
    11:00 +22°C° 0 mm 3 mps 748 mmHg 60%
    12:00 +24°C° 0 mm 3 mps 747 mmHg 59%
    13:00 +25°C° 0 mm 3 mps 747 mmHg 59%
    14:00 +26°C° 0 mm 3 mps 747 mmHg 58%
    15:00 +26°C° 0 mm 3 mps 747 mmHg 60%
    16:00 +26°C° 0 mm 3 mps 747 mmHg 61%
    17:00 +27°C° 0 mm 3 mps 746 mmHg 63%
    18:00 +25°C° 0 mm 3 mps 746 mmHg 69%
    19:00 +24°C° 0 mm 2 mps 746 mmHg 75%
    20:00 +23°C° 0 mm 2 mps 746 mmHg 81%
    21:00 +20°C° 0 mm 2 mps 746 mmHg 84%
    22:00 +19°C° 0 mm 2 mps 746 mmHg 87%
    23:00 +18°C° 0 mm 3 mps 746 mmHg 90%

    1 July, Monday

    Time Temperature Precipitation Wind Pressure Humidity
    00:00 +18°C° 0 mm 3 mps 746 mmHg 90%
    01:00 +17°C° 0 mm 3 mps 745 mmHg 89%
    02:00 +17°C° 0 mm 3 mps 745 mmHg 89%
    03:00 +17°C° 0 mm 3 mps 745 mmHg 89%
    04:00 +17°C° 0 mm 3 mps 745 mmHg 88%
    05:00 +17°C° 0 mm 4 mps 744 mmHg 88%
    06:00 +19°C° 0 mm 4 mps 744 mmHg 85%
    07:00 +20°C° 0 mm 4 mps 744 mmHg 82%
    08:00 +22°C° 0 mm 4 mps 744 mmHg 79%
    09:00 +23°C° 0 mm 4 mps 744 mmHg 76%
    10:00 +26°C° 0 mm 4 mps 744 mmHg 73%
    11:00 +27°C° 0 mm 5 mps 744 mmHg 70%
    12:00 +27°C° 0.4 mm 5 mps 743 mmHg 68%
    13:00 +28°C° 0.4 mm 5 mps 743 mmHg 66%
    14:00 +28°C° 0.4 mm 6 mps 743 mmHg 64%
    15:00 +27°C° 0 mm 5 mps 743 mmHg 64%
    16:00 +27°C° 0 mm 5 mps 743 mmHg 63%
    17:00 +26°C° 0 mm 4 mps 743 mmHg 62%
    18:00 +25°C° 0 mm 4 mps 743 mmHg 67%
    19:00 +22°C° 0 mm 3 mps 743 mmHg 72%
    20:00 +20°C° 0 mm 2 mps 743 mmHg 78%
    21:00 +19°C° 0 mm 2 mps 743 mmHg 79%
    22:00 +19°C° 0 mm 1 mps 743 mmHg 81%
    23:00 +18°C° 0 mm 1 mps 743 mmHg 83%
    Show more